Tracking 35237 objects as of 5-Sep-2026
HD Live streaming from Space Station
objects crossing your sky now

STARLINK-3834

Track STARLINK-3834 now!
10-day predictions
STARLINK-3834 is classified as:


NORAD ID: 52368
Int'l Code: 2022-045AP
Launch date: April 29, 2022
Source: United States (US)
Launch site: AIR FORCE EASTERN TEST RANGE (AFETR)
Your satellite tracking list
Your tracking list is empty




NASA's NSSDC Master Catalog

Two Line Element Set (TLE):
1 52368U 22045AP  26246.88661240  .00000489  00000-0  25600-4 0  9990
2 52368  53.1599 103.0384 0001223  98.7923 261.3218 15.34395799242896
Source of the keplerian elements: AFSPC